User: anonymous   Login
Location: Unspecified
(0.0000°N, 0.0000°E)
Time: 06:47:31
(UTC+00:00)
Language:

SPROUT - Orbit

View from above orbital plane
View from above orbital plane
View from above satellite
View from above satellite

Ground track
Ground track

The orbit data is extracted from the following two-line orbital elements,

1 39770U 14029E   17087.84039647 +.00001947 +00000-0 +22849-3 0  9995
2 39770 097.8692 188.0287 0008541 220.2426 139.8158 14.86066354154209
Epoch (UTC): 28 March 2017 20:10:10
Eccentricity: 0.0008541
inclination: 97.8692°
perigee height: 604 km
apogee height: 616 km
right ascension of ascending node: 188.0287°
argument of perigee: 220.2426°
revolutions per day: 14.86066354
mean anomaly at epoch: 139.8158°
orbit number at epoch: 15420

The dashed part of the orbit path shows where the satellite is in the earth's shadow,  

DLR